Time,TemperatureF,DewpointF,PressureIn,WindDirection,WindDirectionDegrees,WindSpeedMPH,WindSpeedGustMPH,Humidity,HourlyPrecipIn,Conditions,Clouds,dailyrainin,SoftwareType,DateUTC
2013-02-08 00:00:00,57.9,47.8,27.68,SSE,168,10.0,21.0,69,0.00,RA,RA,0.00,WeatherDisplay:10.37,2013-02-07 22:00:00,
2013-02-08 00:10:00,58.0,47.5,27.69,South,173,5.0,20.0,68,0.00,CLR,CLR,0.00,WeatherDisplay:10.37,2013-02-07 22:10:00,
2013-02-08 00:20:00,57.7,47.6,27.68,SSE,152,12.0,24.0,69,0.00,CLR,CLR,0.00,WeatherDisplay:10.37,2013-02-07 22:20:00,
2013-02-08 00:30:00,57.7,49.1,27.68,South,178,8.0,23.0,73,0.00,CLR,CLR,0.00,WeatherDisplay:10.37,2013-02-07 22:30:00,
2013-02-08 00:40:00,57.6,47.5,27.68,SSE,162,13.0,24.0,69,0.00,CLR,CLR,0.00,WeatherDisplay:10.37,2013-02-07 22:40:00,
2013-02-08 00:50:00,57.7,49.1,27.68,SSE,149,14.0,24.0,73,0.00,CLR,CLR,0.00,WeatherDisplay:10.37,2013-02-07 22:50:00,
2013-02-08 01:00:00,57.6,49.0,27.68,SSE,149,9.0,24.0,73,0.00,CLR,CLR,0.00,WeatherDisplay:10.37,2013-02-07 23:00:00,
2013-02-08 01:10:00,57.6,47.5,27.68,SE,143,12.0,24.0,69,0.00,CLR,CLR,0.00,WeatherDisplay:10.37,2013-02-07 23:10:00,
2013-02-08 01:20:00,57.6,48.2,27.68,South,174,9.0,22.0,71,0.00,CLR,CLR,0.00,WeatherDisplay:10.37,2013-02-07 23:20:00,
2013-02-08 01:30:00,57.6,47.5,27.68,SSE,167,10.0,23.0,69,0.00,CLR,CLR,0.00,WeatherDisplay:10.37,2013-02-07 23:30:00,
2013-02-08 01:40:00,57.6,46.7,27.68,SE,136,9.0,23.0,67,0.00,CLR,CLR,0.00,WeatherDisplay:10.37,2013-02-07 23:40:00,
2013-02-08 01:50:00,57.6,46.3,27.68,SSE,157,12.0,31.0,66,0.00,CLR,CLR,0.00,WeatherDisplay:10.37,2013-02-07 23:50:00,
2013-02-08 02:00:00,57.6,46.7,27.68,SSE,166,9.0,31.0,67,0.00,CLR,CLR,0.00,WeatherDisplay:10.37,2013-02-08 00:00:00,
2013-02-08 02:10:00,57.9,47.4,27.69,South,176,13.0,27.0,68,0.00,CLR,CLR,0.00,WeatherDisplay:10.37,2013-02-08 00:10:00,
2013-02-08 02:20:00,57.7,46.9,27.68,South,178,9.0,25.0,67,0.00,CLR,CLR,0.00,WeatherDisplay:10.37,2013-02-08 00:20:00,
2013-02-08 02:30:00,57.7,46.5,27.69,South,170,13.0,25.0,66,0.00,CLR,CLR,0.00,WeatherDisplay:10.37,2013-02-08 00:30:00,
2013-02-08 02:40:00,57.7,44.8,27.68,SSE,155,10.0,25.0,62,0.00,CLR,CLR,0.00,WeatherDisplay:10.37,2013-02-08 00:40:00,
2013-02-08 02:50:00,57.7,46.0,27.68,SSW,200,6.0,21.0,65,0.00,CLR,CLR,0.00,WeatherDisplay:10.37,2013-02-08 00:50:00,
2013-02-08 03:00:00,57.4,46.1,27.68,SW,218,3.0,13.0,66,0.00,CLR,CLR,0.00,WeatherDisplay:10.37,2013-02-08 01:00:00,
2013-02-08 03:10:00,57.0,45.8,27.68,WSW,256,2.0,10.0,66,0.00,CLR,CLR,0.00,WeatherDisplay:10.37,2013-02-08 01:10:00,
2013-02-08 03:20:00,56.7,45.8,27.68,WSW,257,1.0,8.0,67,0.00,CLR,CLR,0.00,WeatherDisplay:10.37,2013-02-08 01:20:00,
2013-02-08 03:30:00,56.5,46.0,27.69,SSW,203,1.0,8.0,68,0.00,CLR,CLR,0.00,WeatherDisplay:10.37,2013-02-08 01:30:00,
2013-02-08 03:40:00,56.7,45.0,27.68,South,183,5.0,12.0,65,0.00,CLR,CLR,0.00,WeatherDisplay:10.37,2013-02-08 01:40:00,
2013-02-08 03:50:00,56.5,44.0,27.68,SSE,166,2.0,8.0,63,0.00,CLR,CLR,0.00,WeatherDisplay:10.37,2013-02-08 01:50:00,
2013-02-08 04:00:00,56.5,44.9,27.68,SW,219,2.0,8.0,65,0.00,CLR,CLR,0.00,WeatherDisplay:10.37,2013-02-08 02:00:00,
2013-02-08 04:10:00,56.5,45.3,27.68,WSW,246,0.0,6.0,66,0.00,CLR,CLR,0.00,WeatherDisplay:10.37,2013-02-08 02:10:00,
2013-02-08 04:20:00,56.3,44.7,27.67,South,170,2.0,9.0,65,0.00,CLR,CLR,0.00,WeatherDisplay:10.37,2013-02-08 02:20:00,
2013-02-08 04:30:00,56.1,43.3,27.68,SSW,193,3.0,11.0,62,0.00,CLR,CLR,0.00,WeatherDisplay:10.37,2013-02-08 02:30:00,
2013-02-08 04:40:00,56.5,42.4,27.69,South,181,8.0,15.0,59,0.00,CLR,CLR,0.00,WeatherDisplay:10.37,2013-02-08 02:40:00,
2013-02-08 04:50:00,56.5,43.2,27.69,SE,146,7.0,18.0,61,0.00,CLR,CLR,0.00,WeatherDisplay:10.37,2013-02-08 02:50:00,
2013-02-08 05:00:00,56.1,43.7,27.69,SSE,152,10.0,20.0,63,0.00,CLR,CLR,0.00,WeatherDisplay:10.37,2013-02-08 03:00:00,
2013-02-08 05:10:00,55.9,44.7,27.69,SE,139,5.0,20.0,66,0.00,CLR,CLR,0.00,WeatherDisplay:10.37,2013-02-08 03:10:00,
2013-02-08 05:20:00,55.8,45.0,27.69,South,173,5.0,14.0,67,0.00,CLR,CLR,0.00,WeatherDisplay:10.37,2013-02-08 03:20:00,
2013-02-08 05:30:00,55.9,43.9,27.70,SSE,157,7.0,16.0,64,0.00,CLR,CLR,0.00,WeatherDisplay:10.37,2013-02-08 03:30:00,
2013-02-08 05:40:00,55.9,44.3,27.70,SSE,159,6.0,16.0,65,0.00,CLR,CLR,0.00,WeatherDisplay:10.37,2013-02-08 03:40:00,
2013-02-08 05:50:00,55.9,43.9,27.70,SSE,158,8.0,17.0,64,0.00,CLR,CLR,0.00,WeatherDisplay:10.37,2013-02-08 03:50:00,
2013-02-08 06:00:00,55.8,43.8,27.70,SSE,152,8.0,17.0,64,0.00,CLR,CLR,0.00,WeatherDisplay:10.37,2013-02-08 04:00:00,
2013-02-08 06:10:00,55.9,44.7,27.70,SSE,160,10.0,20.0,66,0.00,CLR,CLR,0.00,WeatherDisplay:10.37,2013-02-08 04:10:00,
2013-02-08 06:20:00,55.9,47.8,27.70,South,184,2.0,23.0,74,0.00,CLR,CLR,0.00,WeatherDisplay:10.37,2013-02-08 04:20:00,
2013-02-08 06:30:00,55.6,47.1,27.70,South,175,9.0,20.0,73,0.00,CLR,CLR,0.00,WeatherDisplay:10.37,2013-02-08 04:30:00,
2013-02-08 06:40:00,55.4,47.2,27.70,SSE,153,13.0,23.0,74,0.00,CLR,CLR,0.00,WeatherDisplay:10.37,2013-02-08 04:40:00,
2013-02-08 06:50:00,55.4,46.5,27.70,SSE,156,10.0,23.0,72,0.00,CLR,CLR,0.00,WeatherDisplay:10.37,2013-02-08 04:50:00,
2013-02-08 07:00:00,55.2,46.3,27.71,South,174,7.0,20.0,72,0.00,CLR,CLR,0.00,WeatherDisplay:10.37,2013-02-08 05:00:00,
2013-02-08 07:10:00,55.2,46.0,27.71,South,170,8.0,21.0,71,0.00,CLR,CLR,0.00,WeatherDisplay:10.37,2013-02-08 05:10:00,
2013-02-08 07:20:00,55.2,46.3,27.71,SSE,154,8.0,20.0,72,0.00,CLR,CLR,0.00,WeatherDisplay:10.37,2013-02-08 05:20:00,
2013-02-08 07:30:00,55.0,46.2,27.71,SSE,152,9.0,17.0,72,0.00,CLR,CLR,0.00,WeatherDisplay:10.37,2013-02-08 05:30:00,
2013-02-08 07:40:00,55.2,44.8,27.72,SSE,152,8.0,17.0,68,0.00,CLR,CLR,0.00,WeatherDisplay:10.37,2013-02-08 05:40:00,
2013-02-08 07:50:00,55.4,44.6,27.72,SE,133,7.0,14.0,67,0.00,CLR,CLR,0.00,WeatherDisplay:10.37,2013-02-08 05:50:00,
2013-02-08 08:00:00,55.6,44.4,27.73,South,187,9.0,16.0,66,0.00,CLR,CLR,0.00,WeatherDisplay:10.37,2013-02-08 06:00:00,
2013-02-08 08:10:00,55.4,44.2,27.73,SSE,161,5.0,15.0,66,0.00,CLR,CLR,0.00,WeatherDisplay:10.37,2013-02-08 06:10:00,
2013-02-08 08:20:00,55.6,44.8,27.73,South,171,5.0,12.0,67,0.00,CLR,CLR,0.00,WeatherDisplay:10.37,2013-02-08 06:20:00,
2013-02-08 08:30:00,55.4,45.0,27.73,South,170,1.0,15.0,68,0.00,CLR,CLR,0.00,WeatherDisplay:10.37,2013-02-08 06:30:00,
2013-02-08 08:40:00,55.9,45.5,27.73,SSE,157,3.0,12.0,68,0.00,CLR,CLR,0.00,WeatherDisplay:10.37,2013-02-08 06:40:00,
2013-02-08 08:50:00,57.5,45.8,27.73,SSE,159,5.0,13.0,65,0.00,CLR,CLR,0.00,WeatherDisplay:10.37,2013-02-08 06:50:00,
2013-02-08 09:00:00,58.2,45.3,27.74,South,180,6.0,13.0,62,0.00,CLR,CLR,0.00,WeatherDisplay:10.37,2013-02-08 07:00:00,
2013-02-08 09:10:00,60.0,45.7,27.74,SSE,152,5.0,15.0,59,0.00,CLR,CLR,0.00,WeatherDisplay:10.37,2013-02-08 07:10:00,
2013-02-08 09:20:00,59.2,45.3,27.73,SE,141,8.0,20.0,60,0.00,CLR,CLR,0.00,WeatherDisplay:10.37,2013-02-08 07:20:00,
2013-02-08 09:30:00,58.9,45.0,27.74,South,179,7.0,17.0,60,0.00,CLR,CLR,0.00,WeatherDisplay:10.37,2013-02-08 07:30:00,
2013-02-08 09:40:00,57.2,45.1,27.74,South,178,5.0,16.0,64,0.00,CLR,CLR,0.00,WeatherDisplay:10.37,2013-02-08 07:40:00,
2013-02-08 09:50:00,57.9,45.0,27.74,SSE,155,9.0,18.0,62,0.00,CLR,CLR,0.00,WeatherDisplay:10.37,2013-02-08 07:50:00,
2013-02-08 10:00:00,59.4,45.0,27.74,SSE,150,12.0,16.0,59,0.00,CLR,CLR,0.00,WeatherDisplay:10.37,2013-02-08 08:00:00,
2013-02-08 10:10:00,58.5,44.2,27.74,SSE,162,8.0,20.0,59,0.00,CLR,CLR,0.00,WeatherDisplay:10.37,2013-02-08 08:10:00,
2013-02-08 10:20:00,58.3,44.0,27.75,South,172,8.0,17.0,59,0.00,CLR,CLR,0.00,WeatherDisplay:10.37,2013-02-08 08:20:00,
2013-02-08 10:30:00,58.3,43.6,27.75,South,175,10.0,20.0,58,0.00,CLR,CLR,0.00,WeatherDisplay:10.37,2013-02-08 08:30:00,
2013-02-08 10:40:00,60.0,46.1,27.74,SSE,167,6.0,20.0,60,0.00,CLR,CLR,0.00,WeatherDisplay:10.37,2013-02-08 08:40:00,
2013-02-08 10:50:00,58.5,44.6,27.75,SSE,161,8.0,17.0,60,0.00,CLR,CLR,0.00,WeatherDisplay:10.37,2013-02-08 08:50:00,
2013-02-08 11:00:00,58.4,44.6,27.75,SSE,168,7.0,21.0,60,0.00,CLR,CLR,0.00,WeatherDisplay:10.37,2013-02-08 09:00:00,
2013-02-08 11:10:00,58.2,46.1,27.74,SE,140,5.0,21.0,64,0.00,CLR,CLR,0.00,WeatherDisplay:10.37,2013-02-08 09:10:00,
2013-02-08 11:20:00,56.7,45.9,27.74,SSE,152,9.0,20.0,67,0.00,CLR,CLR,0.00,WeatherDisplay:10.37,2013-02-08 09:20:00,
2013-02-08 11:30:00,56.5,46.4,27.75,SSE,154,9.0,17.0,69,0.00,CLR,CLR,0.00,WeatherDisplay:10.37,2013-02-08 09:30:00,
2013-02-08 11:40:00,55.9,45.5,27.74,SSE,155,9.0,20.0,68,0.00,CLR,CLR,0.00,WeatherDisplay:10.37,2013-02-08 09:40:00,
2013-02-08 11:50:00,55.9,45.9,27.74,SSE,157,9.0,18.0,69,0.00,CLR,CLR,0.00,WeatherDisplay:10.37,2013-02-08 09:50:00,
2013-02-08 12:00:00,56.1,46.1,27.73,SSE,164,8.0,16.0,69,0.00,CLR,CLR,0.00,WeatherDisplay:10.37,2013-02-08 10:00:00,
2013-02-08 12:10:00,56.1,45.3,27.72,SE,134,6.0,15.0,67,0.00,CLR,CLR,0.00,WeatherDisplay:10.37,2013-02-08 10:10:00,
2013-02-08 12:20:00,56.4,45.6,27.73,SE,135,5.0,15.0,67,0.00,CLR,CLR,0.00,WeatherDisplay:10.37,2013-02-08 10:20:00,
2013-02-08 12:30:00,56.6,46.2,27.73,SSE,155,7.0,15.0,68,0.00,CLR,CLR,0.00,WeatherDisplay:10.37,2013-02-08 10:30:00,
2013-02-08 12:40:00,56.5,46.5,27.74,SSE,162,10.0,18.0,69,0.00,CLR,CLR,0.00,WeatherDisplay:10.37,2013-02-08 10:40:00,
2013-02-08 12:50:00,57.0,47.3,27.73,SSE,164,7.0,21.0,70,0.00,CLR,CLR,0.00,WeatherDisplay:10.37,2013-02-08 10:50:00,
2013-02-08 13:00:00,58.6,46.9,27.73,SSE,165,3.0,17.0,65,0.00,CLR,CLR,0.00,WeatherDisplay:10.37,2013-02-08 11:00:00,
2013-02-08 13:10:00,59.6,47.0,27.73,SSW,206,6.0,15.0,63,0.00,CLR,CLR,0.00,WeatherDisplay:10.37,2013-02-08 11:10:00,
2013-02-08 13:20:00,59.9,46.0,27.73,SSW,210,3.0,15.0,60,0.00,CLR,CLR,0.00,WeatherDisplay:10.37,2013-02-08 11:20:00,
2013-02-08 13:30:00,59.7,45.8,27.73,SSW,197,6.0,12.0,60,0.00,CLR,CLR,0.00,WeatherDisplay:10.37,2013-02-08 11:30:00,
2013-02-08 13:40:00,60.0,45.2,27.74,SE,143,6.0,14.0,58,0.00,CLR,CLR,0.00,WeatherDisplay:10.37,2013-02-08 11:40:00,
2013-02-08 13:50:00,60.0,45.2,27.74,South,177,6.0,12.0,58,0.00,CLR,CLR,0.00,WeatherDisplay:10.37,2013-02-08 11:50:00,
2013-02-08 14:00:00,60.2,44.5,27.73,South,169,10.0,16.0,56,0.00,CLR,CLR,0.00,WeatherDisplay:10.37,2013-02-08 12:00:00,
2013-02-08 14:10:00,60.6,44.8,27.73,South,175,5.0,16.0,56,0.00,CLR,CLR,0.00,WeatherDisplay:10.37,2013-02-08 12:10:00,
2013-02-08 14:20:00,59.1,45.2,27.73,SSE,166,12.0,17.0,60,0.00,CLR,CLR,0.00,WeatherDisplay:10.37,2013-02-08 12:20:00,
2013-02-08 14:30:00,58.3,44.9,27.73,SSE,160,6.0,17.0,61,0.00,CLR,CLR,0.00,WeatherDisplay:10.37,2013-02-08 12:30:00,
2013-02-08 14:40:00,59.5,45.6,27.72,SSE,167,5.0,14.0,60,0.00,CLR,CLR,0.00,WeatherDisplay:10.37,2013-02-08 12:40:00,
2013-02-08 14:50:00,58.6,45.2,27.72,South,176,8.0,15.0,61,0.00,CLR,CLR,0.00,WeatherDisplay:10.37,2013-02-08 12:50:00,
2013-02-08 15:00:00,59.9,46.4,27.71,South,175,7.0,16.0,61,0.00,CLR,CLR,0.00,WeatherDisplay:10.37,2013-02-08 13:00:00,
2013-02-08 15:10:00,61.0,46.5,27.72,South,185,5.0,13.0,59,0.00,CLR,CLR,0.00,WeatherDisplay:10.37,2013-02-08 13:10:00,
2013-02-08 15:20:00,59.9,46.0,27.72,SSE,152,7.0,13.0,60,0.00,CLR,CLR,0.00,WeatherDisplay:10.37,2013-02-08 13:20:00,
2013-02-08 15:30:00,59.6,46.6,27.72,South,182,8.0,13.0,62,0.00,CLR,CLR,0.00,WeatherDisplay:10.37,2013-02-08 13:30:00,
2013-02-08 15:40:00,59.6,45.7,27.73,South,174,6.0,16.0,60,0.00,CLR,CLR,0.00,WeatherDisplay:10.37,2013-02-08 13:40:00,
2013-02-08 15:50:00,62.0,46.1,27.73,South,174,8.0,16.0,56,0.00,CLR,CLR,0.00,WeatherDisplay:10.37,2013-02-08 13:50:00,
2013-02-08 16:00:00,61.9,44.6,27.73,South,172,6.0,16.0,53,0.00,CLR,CLR,0.00,WeatherDisplay:10.37,2013-02-08 14:00:00,
2013-02-08 16:10:00,61.4,44.1,27.73,South,172,6.0,17.0,53,0.00,CLR,CLR,0.00,WeatherDisplay:10.37,2013-02-08 14:10:00,
2013-02-08 16:20:00,63.0,45.1,27.73,South,180,2.0,13.0,52,0.00,CLR,CLR,0.00,WeatherDisplay:10.37,2013-02-08 14:20:00,
2013-02-08 16:30:00,62.8,43.9,27.73,SW,221,3.0,8.0,50,0.00,CLR,CLR,0.00,WeatherDisplay:10.37,2013-02-08 14:30:00,
2013-02-08 16:40:00,61.2,43.4,27.73,South,187,3.0,15.0,52,0.00,CLR,CLR,0.00,WeatherDisplay:10.37,2013-02-08 14:40:00,
2013-02-08 16:50:00,59.5,43.3,27.74,SSW,201,5.0,13.0,55,0.00,CLR,CLR,0.00,WeatherDisplay:10.37,2013-02-08 14:50:00,
2013-02-08 17:00:00,57.9,42.3,27.74,SW,221,7.0,13.0,56,0.00,CLR,CLR,0.00,WeatherDisplay:10.37,2013-02-08 15:00:00,
2013-02-08 17:10:00,57.7,43.5,27.74,SW,230,6.0,13.0,59,0.00,CLR,CLR,0.00,WeatherDisplay:10.37,2013-02-08 15:10:00,
2013-02-08 17:20:00,58.3,45.7,27.74,WSW,242,6.0,15.0,63,0.00,CLR,CLR,0.00,WeatherDisplay:10.37,2013-02-08 15:20:00,
2013-02-08 17:30:00,57.7,45.6,27.75,WSW,256,3.0,15.0,64,0.00,CLR,CLR,0.00,WeatherDisplay:10.37,2013-02-08 15:30:00,
2013-02-08 17:40:00,56.7,45.0,27.76,West,263,5.0,13.0,65,0.00,CLR,CLR,0.00,WeatherDisplay:10.37,2013-02-08 15:40:00,
2013-02-08 17:50:00,56.3,45.1,27.76,West,278,3.0,11.0,66,0.00,CLR,CLR,0.00,WeatherDisplay:10.37,2013-02-08 15:50:00,
2013-02-08 18:00:00,56.1,44.1,27.77,SW,233,3.0,10.0,64,0.00,CLR,CLR,0.00,WeatherDisplay:10.37,2013-02-08 16:00:00,
2013-02-08 18:10:00,56.1,44.5,27.77,SW,225,2.0,10.0,65,0.00,CLR,CLR,0.00,WeatherDisplay:10.37,2013-02-08 16:10:00,
2013-02-08 18:20:00,56.1,45.3,27.78,SW,218,2.0,7.0,67,0.00,CLR,CLR,0.00,WeatherDisplay:10.37,2013-02-08 16:20:00,
2013-02-08 18:30:00,56.1,45.3,27.78,WSW,249,6.0,11.0,67,0.00,CLR,CLR,0.00,WeatherDisplay:10.37,2013-02-08 16:30:00,
2013-02-08 18:40:00,56.3,43.9,27.78,WSW,248,5.0,11.0,63,0.00,CLR,CLR,0.00,WeatherDisplay:10.37,2013-02-08 16:40:00,
2013-02-08 18:50:00,56.2,44.2,27.79,SW,231,8.0,20.0,64,0.00,CLR,CLR,0.00,WeatherDisplay:10.37,2013-02-08 16:50:00,
2013-02-08 19:00:00,54.9,42.9,27.80,SSW,207,10.0,23.0,64,0.00,CLR,CLR,0.00,WeatherDisplay:10.37,2013-02-08 17:00:00,
2013-02-08 19:10:00,54.3,43.2,27.81,SSW,198,6.0,18.0,66,0.00,CLR,CLR,0.00,WeatherDisplay:10.37,2013-02-08 17:10:00,
2013-02-08 19:20:00,54.1,42.9,27.80,WSW,240,7.0,17.0,66,0.00,CLR,CLR,0.00,WeatherDisplay:10.37,2013-02-08 17:20:00,
2013-02-08 19:30:00,54.1,42.2,27.81,SW,216,8.0,15.0,64,0.00,CLR,CLR,0.00,WeatherDisplay:10.37,2013-02-08 17:30:00,
2013-02-08 19:40:00,54.3,42.4,27.81,SSW,198,7.0,16.0,64,0.00,CLR,CLR,0.00,WeatherDisplay:10.37,2013-02-08 17:40:00,
2013-02-08 19:50:00,54.1,41.0,27.81,SW,236,9.0,21.0,61,0.00,CLR,CLR,0.00,WeatherDisplay:10.37,2013-02-08 17:50:00,
2013-02-08 20:00:00,54.1,41.0,27.82,West,276,9.0,17.0,61,0.00,CLR,CLR,0.00,WeatherDisplay:10.37,2013-02-08 18:00:00,
2013-02-08 20:10:00,54.0,41.2,27.83,WSW,255,7.0,15.0,62,0.00,CLR,CLR,0.00,WeatherDisplay:10.37,2013-02-08 18:10:00,
2013-02-08 20:20:00,54.2,41.8,27.83,SW,221,5.0,14.0,63,0.00,CLR,CLR,0.00,WeatherDisplay:10.37,2013-02-08 18:20:00,
2013-02-08 20:40:00,54.7,41.5,27.83,SSW,205,5.0,13.0,61,0.00,CLR,CLR,0.00,WeatherDisplay:10.37,2013-02-08 18:40:00,
2013-02-08 20:50:00,54.7,40.7,27.83,WSW,250,5.0,15.0,59,0.00,CLR,CLR,0.00,WeatherDisplay:10.37,2013-02-08 18:50:00,
2013-02-08 21:00:00,54.9,40.4,27.83,SW,233,6.0,15.0,58,0.00,CLR,CLR,0.00,WeatherDisplay:10.37,2013-02-08 19:00:00,
2013-02-08 21:10:00,54.7,39.7,27.84,WSW,244,8.0,17.0,57,0.00,CLR,CLR,0.00,WeatherDisplay:10.37,2013-02-08 19:10:00,
2013-02-08 21:20:00,54.6,40.1,27.84,SW,225,6.0,15.0,58,0.00,CLR,CLR,0.00,WeatherDisplay:10.37,2013-02-08 19:20:00,
2013-02-08 21:30:00,54.3,39.4,27.84,WSW,237,5.0,13.0,57,0.00,CLR,CLR,0.00,WeatherDisplay:10.37,2013-02-08 19:30:00,
2013-02-08 21:40:00,54.5,41.3,27.84,WSW,258,7.0,12.0,61,0.00,CLR,CLR,0.00,WeatherDisplay:10.37,2013-02-08 19:40:00,
2013-02-08 21:50:00,54.5,40.5,27.85,West,259,9.0,17.0,59,0.00,CLR,CLR,0.00,WeatherDisplay:10.37,2013-02-08 19:50:00,
2013-02-08 22:00:00,54.1,39.7,27.85,WSW,242,6.0,21.0,58,0.00,CLR,CLR,0.00,WeatherDisplay:10.37,2013-02-08 20:00:00,
2013-02-08 22:10:00,54.1,39.7,27.86,SW,234,6.0,15.0,58,0.00,CLR,CLR,0.00,WeatherDisplay:10.37,2013-02-08 20:10:00,
2013-02-08 22:20:00,54.4,39.0,27.86,WSW,242,3.0,14.0,56,0.00,CLR,CLR,0.00,WeatherDisplay:10.37,2013-02-08 20:20:00,
2013-02-08 22:30:00,54.3,38.0,27.87,West,259,5.0,11.0,54,0.00,CLR,CLR,0.00,WeatherDisplay:10.37,2013-02-08 20:30:00,
2013-02-08 22:40:00,54.3,39.4,27.87,SSW,211,5.0,11.0,57,0.00,CLR,CLR,0.00,WeatherDisplay:10.37,2013-02-08 20:40:00,
2013-02-08 22:50:00,54.1,39.7,27.87,SW,232,3.0,8.0,58,0.00,CLR,CLR,0.00,WeatherDisplay:10.37,2013-02-08 20:50:00,
2013-02-08 23:00:00,54.1,39.7,27.87,SSW,205,2.0,9.0,58,0.00,CLR,CLR,0.00,WeatherDisplay:10.37,2013-02-08 21:00:00,
2013-02-08 23:10:00,54.0,39.5,27.88,South,176,3.0,10.0,58,0.00,CLR,CLR,0.00,WeatherDisplay:10.37,2013-02-08 21:10:00,
2013-02-08 23:20:00,54.0,39.1,27.88,SW,232,3.0,12.0,57,0.00,CLR,CLR,0.00,WeatherDisplay:10.37,2013-02-08 21:20:00,
2013-02-08 23:30:00,53.9,39.0,27.88,SSW,210,2.0,10.0,57,0.00,CLR,CLR,0.00,WeatherDisplay:10.37,2013-02-08 21:30:00,
2013-02-08 23:40:00,54.0,39.1,27.88,South,189,3.0,7.0,57,0.00,CLR,CLR,0.00,WeatherDisplay:10.37,2013-02-08 21:40:00,
2013-02-08 23:50:00,54.1,40.1,27.88,SW,215,1.0,7.0,59,0.00,CLR,CLR,0.00,WeatherDisplay:10.37,2013-02-08 21:50:00,